Regional Weather Roundup
Issued by NWS

Home | Current Version | Previous Version | Text Only | Print | Product List | Glossary Off
Versions: 1 2 3 4 5 6 7 8 9 10 11 12 13 14 15 16 17 18 19 20 21 22 23 24 25 26 27 28 29 30 31 32 33 34 35 36 37 38 39 40 41 42 43 44 45 46 47 48 49 50

000
ASUS43 KLSX 172007
RWRMO

WEATHER SUMMARY FOR MISSOURI
NATIONAL WEATHER SERVICE SPRINGFIELD MO
300 PM CDT FRI APR 17 2015

NOTE: "FAIR" INDICATES FEW OR NO CLOUDS BELOW 12,000 FEET WITH NO
       SIGNIFICANT WEATHER AND/OR OBSTRUCTIONS TO VISIBILITY.
       CURRENT SKY AND/OR WEATHER CONDITIONS ARE NOT AVAILABLE FOR
       CHILLICOTHE AND FARMINGTON.

MOZ001>031-035>038-043-044-053-054-172100-
...NORTHERN AND WESTERN MISSOURI...

CITY           SKY/WX    TMP DP  RH WIND       PRES   REMARKS
KANSAS CTY INT CLOUDY    75  57  53 SE10      29.98F
KANSAS C DTWN  CLOUDY    77  56  48 SE10      29.96F
LEE`S SUMMIT   CLOUDY    75  57  53 E8        29.98F
ST JOSEPH      CLOUDY    75  54  47 SE12      29.98F
CHILLICOTHE      N/A     79  56  45 VRB5      30.01F
KIRKSVILLE     MOSUNNY   79  56  45 VRB5      30.02F

$$
MOZ066>068-077>081-088>096-101>105-172100-
...SOUTHWEST MISSOURI...

CITY           SKY/WX    TMP DP  RH WIND       PRES   REMARKS
SPRINGFIELD    PTSUNNY   74  57  55 E6        29.99F
JOPLIN         MOSUNNY   73  63  70 SE9       29.99F

$$
MOZ032>034-039>042-045>050-055>058-069>072-172100-
...CENTRAL MISSOURI...

CITY           SKY/WX    TMP DP  RH WIND       PRES   REMARKS
COLUMBIA       PTSUNNY   78  56  46 CALM      30.02F
JEFFERSON CITY MOSUNNY   79  54  41 SE7       30.00F
ROLLA          MOSUNNY   79  54  41 VRB6      30.00F
SEDALIA        PTSUNNY   80  54  40 MISG      30.01F
WHITEMAN AFB   PTSUNNY   78  57  48 VRB5      29.98F
WARRENSBURG    PTSUNNY   79  54  41 SE9       29.98F
OSAGE BEACH    PTSUNNY   79  54  41 SW6       30.01F

$$
MOZ051-052-059>065-172100-
...EAST CENTRAL MISSOURI...

CITY           SKY/WX    TMP DP  RH WIND       PRES   REMARKS
ST LOUIS INTL  MOSUNNY   78  55  44 SE8       30.04F
SPIRIT OF STL  MOSUNNY   77  54  44 CALM      30.02F
ST CHARLES     MOSUNNY   76  54  46 E12       30.02F

$$
MOZ072>076-082>087-097>100-106>115-172100-
...SOUTH CENTRAL AND SOUTHEAST MISSOURI...

CITY           SKY/WX    TMP DP  RH WIND       PRES   REMARKS
CAPE GIRARDEAU CLOUDY    71  63  75 SW5       30.04F
FARMINGTON     PTSUNNY   73  57  56 E7        30.07F
POPLAR BLUFF   PTSUNNY   71  63  75 NE6       30.03F
WEST PLAINS    MOSUNNY   74  56  53 SE7       30.04F

$$



USA.gov is the U.S. government's official web portal to all federal, state and local government web resources and services.